When you browse on this site, cookies collect data to enhance your experience and personalize the content and advertising you see.
Visit our Privacy Policy to learn more. By continuing to use the site, you agree to this use of cookies and data.
  • In Hungary
  • List of Countries
  • For 7 days
  • Water Temperature
  • Satellite Maps
  • Weather Map
  • News
  • Weather Widgets
  • user-avatar
    Login

    Hourly Weather Soma Bey

    Today, 26 April, Friday

    Time Temperature Precipitation Wind Pressure Humidity
    00:00 +28°C° 0 mm 4 mps 748 mmHg 18%
    01:00 +27°C° 0 mm 4 mps 747 mmHg 20%
    02:00 +27°C° 0 mm 4 mps 747 mmHg 21%
    03:00 +26°C° 0 mm 4 mps 747 mmHg 22%
    04:00 +26°C° 0 mm 4 mps 747 mmHg 24%
    05:00 +25°C° 0 mm 5 mps 747 mmHg 25%
    06:00 +27°C° 0 mm 5 mps 747 mmHg 22%
    07:00 +29°C° 0 mm 6 mps 747 mmHg 19%
    08:00 +30°C° 0 mm 7 mps 747 mmHg 17%
    09:00 +32°C° 0 mm 8 mps 747 mmHg 16%
    10:00 +33°C° 0 mm 8 mps 747 mmHg 15%
    11:00 +34°C° 0 mm 8 mps 747 mmHg 14%
    12:00 +34°C° 0 mm 8 mps 747 mmHg 14%
    13:00 +35°C° 0 mm 7 mps 747 mmHg 13%
    14:00 +35°C° 0 mm 7 mps 746 mmHg 13%
    15:00 +35°C° 0 mm 6 mps 746 mmHg 13%
    16:00 +34°C° 0 mm 6 mps 746 mmHg 14%
    17:00 +34°C° 0 mm 5 mps 745 mmHg 14%
    18:00 +33°C° 0 mm 5 mps 745 mmHg 16%
    19:00 +30°C° 0 mm 4 mps 745 mmHg 18%
    20:00 +29°C° 0 mm 3 mps 745 mmHg 20%
    21:00 +29°C° 0 mm 3 mps 746 mmHg 20%
    22:00 +28°C° 0 mm 3 mps 746 mmHg 19%
    23:00 +28°C° 0 mm 3 mps 746 mmHg 19%

    Tomorrow, 27 April, Saturday

    Time Temperature Precipitation Wind Pressure Humidity
    00:00 +27°C° 0 mm 3 mps 746 mmHg 20%
    01:00 +26°C° 0 mm 3 mps 746 mmHg 21%
    02:00 +26°C° 0 mm 3 mps 746 mmHg 21%
    03:00 +25°C° 0 mm 3 mps 745 mmHg 22%
    04:00 +25°C° 0 mm 3 mps 745 mmHg 24%
    05:00 +24°C° 0 mm 3 mps 745 mmHg 25%
    06:00 +26°C° 0 mm 4 mps 746 mmHg 22%
    07:00 +28°C° 0 mm 4 mps 746 mmHg 19%
    08:00 +30°C° 0 mm 4 mps 746 mmHg 17%
    09:00 +32°C° 0 mm 5 mps 746 mmHg 16%
    10:00 +33°C° 0 mm 5 mps 746 mmHg 15%
    11:00 +34°C° 0 mm 5 mps 746 mmHg 15%
    12:00 +35°C° 0 mm 6 mps 746 mmHg 15%
    13:00 +35°C° 0 mm 6 mps 746 mmHg 15%
    14:00 +36°C° 0 mm 7 mps 745 mmHg 15%
    15:00 +35°C° 0 mm 7 mps 745 mmHg 16%
    16:00 +35°C° 0 mm 7 mps 745 mmHg 17%
    17:00 +34°C° 0 mm 7 mps 745 mmHg 18%
    18:00 +33°C° 0 mm 6 mps 745 mmHg 20%
    19:00 +32°C° 0 mm 5 mps 746 mmHg 22%
    20:00 +30°C° 0 mm 4 mps 746 mmHg 24%
    21:00 +29°C° 0 mm 4 mps 746 mmHg 23%
    22:00 +29°C° 0 mm 5 mps 747 mmHg 23%
    23:00 +29°C° 0 mm 5 mps 747 mmHg 23%

    Day after tomorrow, 28 April, Sunday

    Time Temperature Precipitation Wind Pressure Humidity
    00:00 +28°C° 0 mm 4 mps 747 mmHg 23%
    01:00 +27°C° 0 mm 4 mps 746 mmHg 24%
    02:00 +27°C° 0 mm 4 mps 746 mmHg 25%
    03:00 +26°C° 0 mm 4 mps 746 mmHg 25%
    04:00 +25°C° 0 mm 3 mps 746 mmHg 26%
    05:00 +25°C° 0 mm 3 mps 746 mmHg 26%
    06:00 +27°C° 0 mm 3 mps 747 mmHg 23%
    07:00 +28°C° 0 mm 3 mps 747 mmHg 19%
    08:00 +30°C° 0 mm 4 mps 747 mmHg 16%
    09:00 +33°C° 0 mm 4 mps 748 mmHg 15%
    10:00 +34°C° 0 mm 4 mps 748 mmHg 13%
    11:00 +35°C° 0 mm 4 mps 748 mmHg 12%
    12:00 +35°C° 0 mm 5 mps 747 mmHg 13%
    13:00 +36°C° 0 mm 5 mps 747 mmHg 13%
    14:00 +36°C° 0 mm 5 mps 746 mmHg 14%
    15:00 +35°C° 0 mm 4 mps 746 mmHg 15%
    16:00 +34°C° 0 mm 4 mps 746 mmHg 16%
    17:00 +34°C° 0 mm 3 mps 745 mmHg 17%
    18:00 +31°C° 0 mm 2 mps 746 mmHg 19%
    19:00 +30°C° 0 mm 2 mps 746 mmHg 21%
    20:00 +29°C° 0 mm 1 mps 747 mmHg 23%
    21:00 +29°C° 0 mm 1 mps 747 mmHg 23%
    22:00 +28°C° 0 mm 1 mps 747 mmHg 22%
    23:00 +27°C° 0 mm 1 mps 747 mmHg 22%

    29 April, Monday

    Time Temperature Precipitation Wind Pressure Humidity
    00:00 +27°C° 0 mm 1 mps 747 mmHg 21%
    01:00 +26°C° 0 mm 1 mps 747 mmHg 21%
    02:00 +26°C° 0 mm 1 mps 747 mmHg 20%
    03:00 +26°C° 0 mm 1 mps 747 mmHg 19%
    04:00 +25°C° 0 mm 1 mps 747 mmHg 19%
    05:00 +25°C° 0 mm 1 mps 747 mmHg 18%
    06:00 +28°C° 0 mm 1 mps 747 mmHg 16%
    07:00 +30°C° 0 mm 1 mps 748 mmHg 14%
    08:00 +31°C° 0 mm 0 mps 748 mmHg 11%
    09:00 +34°C° 0 mm 1 mps 748 mmHg 11%
    10:00 +36°C° 0 mm 2 mps 748 mmHg 10%
    11:00 +37°C° 0 mm 3 mps 748 mmHg 10%
    12:00 +37°C° 0 mm 3 mps 748 mmHg 10%
    13:00 +38°C° 0 mm 4 mps 747 mmHg 10%
    14:00 +38°C° 0 mm 4 mps 747 mmHg 10%
    15:00 +37°C° 0 mm 4 mps 746 mmHg 11%
    16:00 +36°C° 0 mm 3 mps 746 mmHg 12%
    17:00 +36°C° 0 mm 3 mps 746 mmHg 12%
    18:00 +35°C° 0 mm 2 mps 746 mmHg 13%
    19:00 +34°C° 0 mm 2 mps 747 mmHg 14%
    20:00 +32°C° 0 mm 2 mps 747 mmHg 14%
    21:00 +31°C° 0 mm 1 mps 747 mmHg 14%
    22:00 +31°C° 0 mm 1 mps 748 mmHg 14%
    23:00 +30°C° 0 mm 1 mps 748 mmHg 14%

    30 April, Tuesday

    Time Temperature Precipitation Wind Pressure Humidity
    00:00 +30°C° 0 mm 1 mps 747 mmHg 14%
    01:00 +30°C° 0 mm 2 mps 747 mmHg 13%
    02:00 +29°C° 0 mm 2 mps 747 mmHg 13%
    03:00 +29°C° 0 mm 2 mps 747 mmHg 14%
    04:00 +28°C° 0 mm 2 mps 747 mmHg 14%
    05:00 +27°C° 0 mm 3 mps 748 mmHg 15%
    06:00 +29°C° 0 mm 3 mps 748 mmHg 14%
    07:00 +30°C° 0 mm 3 mps 748 mmHg 14%
    08:00 +33°C° 0 mm 3 mps 749 mmHg 13%
    09:00 +34°C° 0 mm 3 mps 749 mmHg 13%
    10:00 +35°C° 0 mm 4 mps 749 mmHg 12%
    11:00 +36°C° 0 mm 4 mps 748 mmHg 11%
    12:00 +37°C° 0 mm 5 mps 748 mmHg 12%
    13:00 +37°C° 0 mm 5 mps 747 mmHg 13%
    14:00 +38°C° 0 mm 6 mps 747 mmHg 14%
    15:00 +37°C° 0 mm 5 mps 747 mmHg 15%
    16:00 +36°C° 0 mm 5 mps 746 mmHg 15%
    17:00 +35°C° 0 mm 4 mps 746 mmHg 16%
    18:00 +34°C° 0 mm 3 mps 747 mmHg 18%
    19:00 +33°C° 0 mm 3 mps 747 mmHg 19%
    20:00 +31°C° 0 mm 2 mps 747 mmHg 21%
    21:00 +30°C° 0 mm 3 mps 748 mmHg 19%
    22:00 +30°C° 0 mm 3 mps 748 mmHg 18%
    23:00 +30°C° 0 mm 3 mps 748 mmHg 17%

    1 May, Wednesday

    Time Temperature Precipitation Wind Pressure Humidity
    00:00 +29°C° 0 mm 3 mps 748 mmHg 16%
    01:00 +29°C° 0 mm 3 mps 747 mmHg 16%
    02:00 +28°C° 0 mm 3 mps 747 mmHg 16%
    03:00 +28°C° 0 mm 3 mps 747 mmHg 18%
    04:00 +27°C° 0 mm 3 mps 747 mmHg 19%
    05:00 +26°C° 0 mm 3 mps 748 mmHg 21%
    06:00 +28°C° 0 mm 3 mps 748 mmHg 19%
    07:00 +30°C° 0 mm 3 mps 748 mmHg 18%
    08:00 +33°C° 0 mm 3 mps 748 mmHg 16%
    09:00 +34°C° 0 mm 3 mps 748 mmHg 15%
    10:00 +35°C° 0 mm 3 mps 748 mmHg 14%
    11:00 +37°C° 0 mm 3 mps 747 mmHg 14%
    12:00 +37°C° 0 mm 4 mps 747 mmHg 13%
    13:00 +38°C° 0 mm 4 mps 747 mmHg 13%
    14:00 +38°C° 0 mm 4 mps 746 mmHg 12%
    15:00 +37°C° 0 mm 4 mps 746 mmHg 13%
    16:00 +37°C° 0 mm 3 mps 746 mmHg 14%
    17:00 +36°C° 0 mm 2 mps 746 mmHg 14%
    18:00 +35°C° 0 mm 2 mps 746 mmHg 16%
    19:00 +34°C° 0 mm 2 mps 747 mmHg 17%
    20:00 +32°C° 0 mm 2 mps 747 mmHg 18%
    21:00 +32°C° 0 mm 2 mps 747 mmHg 18%
    22:00 +32°C° 0 mm 2 mps 747 mmHg 18%
    23:00 +31°C° 0 mm 2 mps 747 mmHg 19%
    Show more